�������l�o���
Date,Time,MP-1(��Sv/h),MP-2(��Sv/h),MP-3(��Sv/h),MP-4(��Sv/h),MP-5(��Sv/h),MP-6(��Sv/h),MP-7(��Sv/h),MP-8(��Sv/h),����,����(m/s),���J
2018/11/27,00:00,0.783,1.187,0.830,1.487,1.072,0.456,0.801,0.761,��쐼,5.3,��
2018/11/27,00:10,0.785,1.184,0.830,1.486,1.070,0.455,0.804,0.760,��,5.5,��
2018/11/27,00:20,0.783,1.186,0.830,1.486,1.075,0.454,0.804,0.760,��,5.5,��
2018/11/27,00:30,0.784,1.184,0.830,1.486,1.073,0.453,0.803,0.760,��쐼,5.1,��
2018/11/27,00:40,0.785,1.183,0.829,1.485,1.073,0.455,0.804,0.759,��쐼,4.4,��
2018/11/27,00:50,0.784,1.186,0.831,1.485,1.072,0.454,0.804,0.759,��,4.3,��
2018/11/27,01:00,0.784,1.184,0.831,1.488,1.072,0.456,0.805,0.760,��,5.3,��
2018/11/27,01:10,0.784,1.185,0.831,1.484,1.071,0.453,0.803,0.759,��,5.7,��
2018/11/27,01:20,0.783,1.185,0.831,1.484,1.071,0.455,0.805,0.760,��,6.3,��
2018/11/27,01:30,0.784,1.186,0.830,1.485,1.070,0.454,0.804,0.759,��,6.3,��
2018/11/27,01:40,0.783,1.188,0.831,1.485,1.073,0.453,0.803,0.757,��,6.1,��
2018/11/27,01:50,0.784,1.187,0.829,1.484,1.071,0.454,0.804,0.760,��,5.9,��
2018/11/27,02:00,0.784,1.184,0.831,1.488,1.072,0.455,0.805,0.759,��쐼,5.0,��
2018/11/27,02:10,0.783,1.188,0.831,1.489,1.070,0.455,0.805,0.760,��쐼,5.6,��
2018/11/27,02:20,0.784,1.186,0.831,1.490,1.071,0.457,0.803,0.759,��쐼,6.6,��
2018/11/27,02:30,0.783,1.183,0.830,1.489,1.070,0.455,0.804,0.759,��,6.6,��
2018/11/27,02:40,0.783,1.185,0.829,1.487,1.072,0.455,0.804,0.760,��,6.7,��
2018/11/27,02:50,0.783,1.185,0.829,1.486,1.071,0.454,0.804,0.761,��,8.5,��
2018/11/27,03:00,0.782,1.186,0.832,1.488,1.071,0.456,0.803,0.760,��쐼,7.8,��
2018/11/27,03:10,0.780,1.184,0.831,1.487,1.072,0.454,0.804,0.759,��,8.4,��
2018/11/27,03:20,0.783,1.183,0.830,1.487,1.070,0.454,0.803,0.760,��쐼,6.3,��
2018/11/27,03:30,0.781,1.185,0.831,1.490,1.071,0.453,0.803,0.760,��쐼,4.6,��
2018/11/27,03:40,0.782,1.183,0.831,1.489,1.071,0.454,0.803,0.759,��쐼,4.8,��
2018/11/27,03:50,0.782,1.182,0.830,1.487,1.070,0.455,0.804,0.760,��쐼,4.2,��
2018/11/27,04:00,0.781,1.183,0.830,1.488,1.072,0.455,0.803,0.760,��쐼,4.1,��
2018/11/27,04:10,0.782,1.183,0.833,1.487,1.070,0.454,0.804,0.760,��쐼,4.2,��
2018/11/27,04:20,0.781,1.185,0.828,1.487,1.070,0.456,0.804,0.760,��쐼,4.9,��
2018/11/27,04:30,0.783,1.185,0.832,1.487,1.069,0.454,0.805,0.760,��쐼,5.1,��
2018/11/27,04:40,0.782,1.182,0.830,1.487,1.071,0.456,0.803,0.758,��쐼,4.8,��
2018/11/27,04:50,0.783,1.183,0.829,1.487,1.071,0.455,0.803,0.761,��쐼,5.3,��
2018/11/27,05:00,0.780,1.182,0.828,1.488,1.070,0.453,0.803,0.760,��쐼,6.7,��
2018/11/27,05:10,0.784,1.183,0.830,1.488,1.068,0.454,0.803,0.760,��쐼,7.7,��
2018/11/27,05:20,0.782,1.184,0.829,1.486,1.070,0.454,0.803,0.760,��쐼,8.0,��
2018/11/27,05:30,0.782,1.185,0.830,1.487,1.069,0.454,0.802,0.759,��쐼,6.9,��
2018/11/27,05:40,0.783,1.182,0.830,1.486,1.069,0.454,0.803,0.760,��쐼,6.4,��
2018/11/27,05:50,0.784,1.182,0.830,1.486,1.068,0.453,0.803,0.760,��쐼,5.6,��
2018/11/27,06:00,0.784,1.184,0.830,1.489,1.067,0.454,0.802,0.760,�쐼,3.9,��
2018/11/27,06:10,0.784,1.183,0.828,1.490,1.068,0.454,0.803,0.759,�쐼,3.9,��
2018/11/27,06:20,0.782,1.185,0.828,1.488,1.072,0.454,0.803,0.760,��쐼,4.5,��
2018/11/27,06:30,0.781,1.183,0.832,1.489,1.071,0.455,0.802,0.758,��쐼,4.9,��
2018/11/27,06:40,0.781,1.183,0.829,1.489,1.072,0.454,0.803,0.759,��쐼,5.1,��
2018/11/27,06:50,0.781,1.183,0.829,1.486,1.070,0.455,0.803,0.760,��쐼,5.6,��
2018/11/27,07:00,0.783,1.181,0.829,1.485,1.071,0.455,0.802,0.759,��쐼,5.5,��
2018/11/27,07:10,0.783,1.183,0.830,1.486,1.070,0.453,0.803,0.761,��쐼,5.9,��
2018/11/27,07:20,0.783,1.182,0.829,1.489,1.071,0.455,0.803,0.760,��쐼,5.2,��
2018/11/27,07:30,0.784,1.179,0.831,1.487,1.071,0.454,0.803,0.762,��쐼,3.3,��
2018/11/27,07:40,0.786,1.180,0.831,1.488,1.070,0.454,0.804,0.760,��쐼,2.3,��
2018/11/27,07:50,0.785,1.184,0.830,1.488,1.068,0.455,0.805,0.761,��쐼,2.0,��
2018/11/27,08:00,0.783,1.182,0.829,1.487,1.072,0.456,0.804,0.760,��쐼,1.7,��
2018/11/27,08:10,0.786,1.185,0.830,1.487,1.070,0.455,0.804,0.761,��쐼,3.5,��
2018/11/27,08:20,0.784,1.184,0.831,1.490,1.073,0.455,0.804,0.760,��,4.4,��
2018/11/27,08:30,0.786,1.185,0.827,1.487,1.072,0.455,0.806,0.759,��,5.2,��
2018/11/27,08:40,0.786,1.185,0.829,1.485,1.070,0.456,0.806,0.762,��,4.9,��
2018/11/27,08:50,0.784,1.185,0.829,1.491,1.073,0.455,0.806,0.761,��,5.0,��
2018/11/27,09:00,0.787,1.181,0.829,1.486,1.070,0.455,0.806,0.761,��,4.6,��
2018/11/27,09:10,0.787,1.181,0.831,1.489,1.071,0.456,0.805,0.762,��,4.4,��
2018/11/27,09:20,0.786,1.180,0.832,1.490,1.073,0.457,0.804,0.763,��,3.1,��
2018/11/27,09:30,0.785,1.182,0.831,1.490,1.073,0.456,0.805,0.762,��,3.3,��
2018/11/27,09:40,0.787,1.179,0.834,1.489,1.071,0.456,0.804,0.762,��,3.7,��
2018/11/27,09:50,0.786,1.180,0.832,1.490,1.072,0.457,0.804,0.762,��,3.7,��
2018/11/27,10:00,0.785,1.180,0.832,1.487,1.071,0.456,0.806,0.763,��,4.5,��
2018/11/27,10:10,0.787,1.180,0.831,1.489,1.071,0.454,0.804,0.762,��쓌,3.1,��
2018/11/27,10:20,0.785,1.179,0.834,1.488,1.075,0.455,0.806,0.760,��쓌,4.2,��
2018/11/27,10:30,0.785,1.179,0.830,1.491,1.071,0.455,0.806,0.762,��쓌,4.9,��
2018/11/27,10:40,0.784,1.181,0.830,1.490,1.071,0.454,0.805,0.762,��쓌,5.5,��
2018/11/27,10:50,0.787,1.179,0.831,1.489,1.072,0.456,0.807,0.763,��,6.3,��
2018/11/27,11:00,0.787,1.180,0.831,1.490,1.073,0.456,0.806,0.762,��,6.6,��
2018/11/27,11:10,0.786,1.182,0.831,1.488,1.073,0.455,0.806,0.762,��,6.3,��
2018/11/27,11:20,0.785,1.181,0.832,1.491,1.073,0.457,0.805,0.764,��쓌,7.6,��
2018/11/27,11:30,0.788,1.181,0.832,1.490,1.071,0.455,0.806,0.762,��쓌,7.3,��
2018/11/27,11:40,0.786,1.185,0.831,1.492,1.075,0.456,0.805,0.761,��쓌,9.1,��
2018/11/27,11:50,0.787,1.183,0.833,1.492,1.077,0.456,0.807,0.763,��쓌,8.6,��
2018/11/27,12:00,0.786,1.187,0.829,1.490,1.075,0.457,0.807,0.760,��쓌,9.6,��
2018/11/27,12:10,0.787,1.188,0.832,1.490,1.075,0.456,0.808,0.759,��쓌,8.0,��
2018/11/27,12:20,0.787,1.185,0.833,1.493,1.075,0.457,0.805,0.760,��쓌,9.5,��
2018/11/27,12:30,0.787,1.187,0.834,1.490,1.075,0.458,0.806,0.759,��쓌,10.6,��
2018/11/27,12:40,0.787,1.187,0.831,1.494,1.076,0.456,0.807,0.760,��쓌,9.5,��
2018/11/27,12:50,0.787,1.181,0.830,1.493,1.076,0.457,0.806,0.759,��쓌,10.7,��
2018/11/27,13:00,0.787,1.187,0.832,1.491,1.074,0.458,0.807,0.759,��쓌,10.0,��
2018/11/27,13:10,0.787,1.183,0.832,1.492,1.074,0.458,0.806,0.760,��쓌,11.1,��
2018/11/27,13:20,0.786,1.185,0.831,1.494,1.074,0.457,0.806,0.761,��,9.2,��
2018/11/27,13:30,0.787,1.185,0.833,1.491,1.075,0.458,0.806,0.759,��,8.5,��
2018/11/27,13:40,0.790,1.185,0.832,1.490,1.074,0.456,0.806,0.758,��,6.7,��
2018/11/27,13:50,0.786,1.182,0.833,1.491,1.075,0.458,0.808,0.760,��,6.3,��
2018/11/27,14:00,0.783,1.184,0.834,1.494,1.074,0.458,0.805,0.759,��,5.4,��
2018/11/27,14:10,0.784,1.185,0.836,1.490,1.075,0.459,0.806,0.761,��,5.9,��
2018/11/27,14:20,0.789,1.180,0.835,1.491,1.075,0.458,0.807,0.759,��,6.7,��
2018/11/27,14:30,0.788,1.182,0.835,1.492,1.075,0.460,0.806,0.759,��,7.3,��
2018/11/27,14:40,0.788,1.183,0.833,1.491,1.076,0.459,0.808,0.758,��,7.2,��
2018/11/27,14:50,0.789,1.182,0.834,1.491,1.076,0.460,0.809,0.760,��,7.0,��
2018/11/27,15:00,0.790,1.185,0.833,1.491,1.076,0.461,0.806,0.758,��,6.6,��
2018/11/27,15:10,0.787,1.188,0.834,1.492,1.074,0.460,0.808,0.760,��,6.9,��
2018/11/27,15:20,0.788,1.187,0.833,1.492,1.075,0.459,0.807,0.760,��,7.1,��
2018/11/27,15:30,0.788,1.191,0.832,1.493,1.076,0.460,0.807,0.761,��,6.0,��
2018/11/27,15:40,0.788,1.191,0.835,1.492,1.075,0.459,0.807,0.759,��,6.0,��
2018/11/27,15:50,0.785,1.191,0.832,1.491,1.076,0.460,0.807,0.762,��,5.6,��
2018/11/27,16:00,0.785,1.188,0.833,1.491,1.075,0.460,0.808,0.763,��,6.9,��
2018/11/27,16:10,0.787,1.192,0.833,1.492,1.072,0.460,0.807,0.762,��,7.6,��
2018/11/27,16:20,0.788,1.191,0.834,1.491,1.071,0.461,0.807,0.762,��,7.7,��
2018/11/27,16:30,0.784,1.193,0.833,1.491,1.078,0.461,0.807,0.762,��,6.4,��
2018/11/27,16:40,0.786,1.195,0.834,1.492,1.076,0.461,0.806,0.763,��,5.7,��
2018/11/27,16:50,0.785,1.196,0.834,1.492,1.075,0.461,0.807,0.762,��쓌,6.1,��
2018/11/27,17:00,0.788,1.194,0.834,1.493,1.075,0.462,0.807,0.763,��,5.8,��
2018/11/27,17:10,0.788,1.192,0.835,1.492,1.074,0.461,0.807,0.763,��,6.0,��
2018/11/27,17:20,0.790,1.195,0.836,1.492,1.077,0.461,0.808,0.762,��쐼,3.5,��
2018/11/27,17:30,0.787,1.194,0.835,1.491,1.076,0.460,0.806,0.762,��쐼,3.9,��
2018/11/27,17:40,0.788,1.193,0.836,1.490,1.078,0.461,0.809,0.761,��쐼,5.1,��
2018/11/27,17:50,0.788,1.192,0.835,1.492,1.077,0.460,0.808,0.759,��쐼,4.1,��
2018/11/27,18:00,0.789,1.195,0.835,1.488,1.079,0.459,0.809,0.763,���쐼,2.3,��
2018/11/27,18:10,0.786,1.194,0.838,1.487,1.078,0.460,0.808,0.762,���k��,2.5,��
2018/11/27,18:20,0.788,1.192,0.837,1.485,1.079,0.460,0.807,0.761,�k�k��,3.5,��
2018/11/27,18:30,0.787,1.192,0.835,1.491,1.077,0.460,0.809,0.761,�k�k��,5.3,��
2018/11/27,18:40,0.788,1.191,0.835,1.490,1.080,0.458,0.806,0.761,�k�k��,5.0,��
2018/11/27,18:50,0.789,1.192,0.837,1.489,1.079,0.459,0.807,0.761,�k�k��,5.0,��
2018/11/27,19:00,0.788,1.191,0.835,1.487,1.077,0.458,0.806,0.760,�k�k��,4.2,��
2018/11/27,19:10,0.788,1.190,0.835,1.487,1.076,0.458,0.807,0.762,�k�k��,4.5,��
2018/11/27,19:20,0.788,1.189,0.833,1.488,1.075,0.458,0.805,0.760,�k��,4.8,��
2018/11/27,19:30,0.789,1.189,0.836,1.487,1.077,0.459,0.806,0.761,�k��,6.2,��
2018/11/27,19:40,0.788,1.191,0.836,1.484,1.077,0.458,0.809,0.762,�k��,7.7,��
2018/11/27,19:50,0.790,1.190,0.836,1.487,1.076,0.457,0.808,0.762,���k��,5.9,��
2018/11/27,20:00,0.789,1.189,0.835,1.489,1.078,0.458,0.805,0.760,���k��,6.3,��
2018/11/27,20:10,0.789,1.190,0.833,1.491,1.076,0.458,0.806,0.762,���k��,6.1,��
2018/11/27,20:20,0.789,1.191,0.836,1.487,1.078,0.459,0.808,0.762,���k��,6.3,��
2018/11/27,20:30,0.790,1.192,0.836,1.486,1.076,0.458,0.806,0.759,���k��,6.3,��
2018/11/27,20:40,0.788,1.190,0.835,1.487,1.075,0.458,0.806,0.763,��,7.2,��
2018/11/27,20:50,0.789,1.189,0.837,1.485,1.075,0.457,0.808,0.762,��,5.4,��
2018/11/27,21:00,0.788,1.190,0.834,1.483,1.075,0.459,0.806,0.762,��,4.3,��
2018/11/27,21:10,0.788,1.190,0.835,1.485,1.075,0.459,0.806,0.761,��,4.1,��
2018/11/27,21:20,0.788,1.190,0.834,1.485,1.076,0.460,0.806,0.762,��,6.4,��
2018/11/27,21:30,0.788,1.189,0.836,1.484,1.075,0.457,0.806,0.761,���k��,7.8,��
2018/11/27,21:40,0.789,1.190,0.835,1.481,1.077,0.458,0.807,0.763,���k��,4.8,��
2018/11/27,21:50,0.789,1.189,0.835,1.486,1.076,0.457,0.808,0.760,�k��,4.9,��
2018/11/27,22:00,0.789,1.191,0.835,1.487,1.076,0.457,0.807,0.761,���k��,3.6,��
2018/11/27,22:10,0.789,1.188,0.837,1.485,1.076,0.457,0.806,0.762,��,2.0,��
2018/11/27,22:20,0.788,1.189,0.837,1.485,1.077,0.458,0.806,0.761,��,2.5,��
2018/11/27,22:30,0.788,1.188,0.835,1.486,1.078,0.456,0.808,0.762,���쐼,3.8,��
2018/11/27,22:40,0.788,1.189,0.834,1.485,1.074,0.458,0.808,0.763,���쐼,5.8,��
2018/11/27,22:50,0.788,1.189,0.835,1.487,1.075,0.458,0.807,0.762,���쐼,5.2,��
2018/11/27,23:00,0.787,1.188,0.836,1.485,1.076,0.459,0.808,0.762,���쐼,6.0,��
2018/11/27,23:10,0.788,1.188,0.834,1.486,1.074,0.458,0.807,0.761,���쐼,7.0,��
2018/11/27,23:20,0.790,1.191,0.836,1.479,1.077,0.458,0.810,0.762,���쐼,6.0,��
2018/11/27,23:30,0.789,1.189,0.837,1.486,1.076,0.457,0.808,0.762,���쐼,5.8,��
2018/11/27,23:40,0.791,1.191,0.835,1.483,1.074,0.458,0.808,0.763,��,5.6,��
2018/11/27,23:50,0.788,1.190,0.837,1.485,1.076,0.458,0.808,0.763,��,5.8,��
